STARLINK-35268, 65810

Orbit data source: Space-Track

STARLINK-35268, 65810 is a payload satellite owned by SpaceX/Seattle (US) in SSO that was launched on Fri, 26 Sep 2025 UTC via an FALCON 9 launch vehicle from the Air Force Western Test Range (AFWTR). Payload-class satellites include a variety of spacecraft equipped with specific instruments for various scientific and technological missions. These include communications satellites like Starlink; space stations such as the ISS; scientific satellites like the Hubble; Earth observation satellites from companies like Planet Labs, Umbra, and HawkEye 360; GPS; miniature CubeSats for education and research; and military/defense satellites.

Loading next visibility...
Identifier
65810, 2025-218V
Orbit
SSO
Country
Flag of USUS
Related business
Manufacturer
SpaceX/Seattle
Mission
Operational Commercial Communications
Bus & Motor
STARLINK V2MO, Unknown motor
Mass
575 kg wet, ~530 kg dry
Launch date (UTC)
2025-09-26 (5 months ago)
Launch vehicle
FALCON 9
Launch site
Air Force Western Test Range (AFWTR)
Object type
Payload
Rocket body
Debris
Shape & HBR
Box + 2 Pan, 17.7 m
Radar Cross Section
36.964 m²

Expand to show TLE details & history
Last TLE update: 8 hours ago

TLE from 8 hours ago
0 STARLINK-35268
1 65810U 25218V   26062.51674993  .00005009  00000-0  35105-3 0  9999
2 65810  97.6011 286.9122 0002147  79.5958 280.5511 15.05655260 24040
Epoch: 2026-03-03T12:24Z
TLE epoch observation values (Epoch: 2026-03-03T12:24:07.193Z)
Latitude
-0.00002°
Longitude
-60.41245°
Altitude
552.288 km
Speed
7.586 km/s
True Right ascension
19h 07m 38s
True Declination
0° 00' 00"
Sunlit
Object was in daylight at epoch
Visualization orbit readout
Latitude
Unknown
Longitude
Unknown
Altitude
Unknown
Speed
Unknown
Apparent Right ascension
Unknown
Apparent Declination
Unknown
Sunlit
N/A
Visualization observer readout
Local Sidereal Time
00:34:32
Azimuth
Unknown
Elevation
Unknown
Doppler factor
Unknown
Orbital elements
Apogee altitude
547.975 km
Perigee altitude
545.002 km
Semi-major axis
6,924.625 km
Eccentricity
0.00021
Inclination
97.6011°
RAAN
286.9122°
Arg. of periapsis
79.5958°
True anomaly
280.52691°
Mean anomaly
280.5511°
Eccentric anomaly
280.53901°
Mean motion
3.76659 °/min
Orbital period
95.58 mins
BSTAR
0.00035105
Loading maneuver chart data...
Computing Atmospheric mass density...
Loading historical data...
Loading historical data...
Loading historical data...
Loading historical data...
Loading historical data...
Loading historical data...
Loading historical data...

Documentation

Showing up to 5 results
|